User: anonymous   Login
Location: Unspecified
(0.0000°N, 0.0000°E)
Time: 00:55:51
(UTC+00:00)
Language:

OBJECT L - Orbit

View from above orbital plane
View from above orbital plane
View from above satellite
View from above satellite

Ground track
Ground track

The orbit is defined by the following mean orbital elements,

1 67258U          26145.14550847 +.00000000 +00000-0 +38764-3 0 00004
2 67258  97.3933 220.1102 0017054  86.9698 273.3490 15.22726705    00
Epoch (UTC): 25 May 2026 03:29:31
Eccentricity: 0.0017054
inclination: 97.3933°
perigee height: 486 km
apogee height: 509 km
right ascension of ascending node: 220.1102°
argument of perigee: 86.9698°
revolutions per day: 15.22726705
mean anomaly at epoch: 273.3490°

The dashed part of the orbit path shows where the satellite is in the earth's shadow,  

DLR